Location: Maiden
(35.5760°N, 81.2120°W)
Time: 07:18:05
(UTC-04:00)

Tiros 1 despin weight - All Passes

Search period start: 10 August 2020 00:00
Search period end: 20 August 2020 00:00
Orbit: 594 x 642 km, 48.2° (Epoch: 09 August)

Date Brightness Start Highest point End Pass type
(mag) Time Alt. Az. Time Alt. Az. Time Alt. Az.
10 Aug - 05:49:54 10° SE 05:51:03 11° SE 05:52:11 10° ESE visible
10 Aug - 07:27:28 10° SW 07:32:00 75° SE 07:36:29 10° ENE daylight
10 Aug - 09:10:04 10° W 09:13:53 26° NNW 09:17:41 10° NE daylight
10 Aug - 10:53:50 10° NW 10:56:35 16° N 10:59:19 10° NE daylight
10 Aug - 12:35:44 10° NW 12:39:20 24° NNE 12:42:56 10° ENE daylight
10 Aug - 14:16:53 10° NW 14:21:18 88° SW 14:25:43 10° SE daylight
10 Aug - 16:00:20 10° WSW 16:02:18 13° SW 16:04:15 10° SSW daylight
11 Aug - 06:03:34 10° S 06:07:12 24° SE 06:10:49 10° E visible
11 Aug - 07:44:02 10° WSW 07:48:30 57° NNW 07:52:56 10° NE daylight
11 Aug - 09:27:28 10° WNW 09:30:45 20° NNW 09:34:01 10° NNE daylight
11 Aug - 11:10:43 10° NNW 11:13:35 17° N 11:16:28 10° NE daylight
11 Aug - 12:52:01 10° NW 12:56:06 36° NNE 13:00:11 10° E daylight
11 Aug - 14:33:31 10° WNW 14:37:41 42° SW 14:41:51 10° SSE daylight
12 Aug - 06:19:05 10° SSW 06:23:30 49° SE 06:27:51 10° ENE daylight
12 Aug - 08:01:01 10° W 08:05:09 34° NNW 08:09:15 10° NE daylight
12 Aug - 09:44:50 10° NW 09:47:43 16° N 09:50:34 10° NE daylight
12 Aug - 11:27:14 10° NNW 11:30:33 20° NNE 11:33:51 10° ENE daylight
12 Aug - 13:08:21 10° NW 13:12:44 63° NNE 13:17:06 10° ESE daylight
12 Aug - 14:50:42 10° W 14:53:56 20° SW 14:57:10 10° S daylight
13 Aug - 04:56:06 10° SSE 04:58:48 16° SE 05:01:30 10° E visible
13 Aug - 06:35:19 10° SW 06:39:54 83° NW 06:44:26 10° NE daylight
13 Aug - 08:18:18 10° WNW 08:21:57 23° NNW 08:25:32 10° NE daylight
13 Aug - 10:01:56 10° NW 10:04:44 16° N 10:07:30 10° NE daylight
13 Aug - 11:43:33 10° NW 11:47:24 28° NNE 11:51:12 10° E daylight
13 Aug - 13:24:49 10° WNW 13:29:13 66° SW 13:33:34 10° SE daylight
14 Aug - 05:10:55 10° SSW 05:15:01 32° SE 05:19:04 10° ENE visible
14 Aug - 06:52:04 10° WSW 06:56:28 45° NNW 07:00:48 10° NE daylight
14 Aug - 08:35:44 10° NW 08:38:52 18° N 08:41:57 10° NNE daylight
14 Aug - 10:18:39 10° NNW 10:21:43 18° N 10:24:46 10° NE daylight
14 Aug - 11:59:51 10° NW 12:04:07 44° NNE 12:08:20 10° ESE daylight
14 Aug - 13:41:38 10° WNW 13:45:32 31° SW 13:49:25 10° SSE daylight
15 Aug - 05:26:47 10° SW 05:31:21 67° SE 05:35:52 10° ENE visible
15 Aug - 07:09:12 10° W 07:13:11 28° NNW 07:17:06 10° NE daylight
15 Aug - 08:53:02 10° NW 08:55:51 16° N 08:58:39 10° NE daylight
15 Aug - 10:35:04 10° NW 10:38:38 23° NNE 10:42:10 10° ENE daylight
15 Aug - 12:16:14 10° NW 12:20:41 83° NE 12:25:05 10° SE daylight
15 Aug - 13:59:17 10° W 14:01:44 15° SW 14:04:09 10° SSW daylight
16 Aug - 04:03:05 10° S 04:06:35 21° SE 04:10:02 10° E visible
16 Aug - 05:43:15 10° WSW 05:47:49 64° NNW 05:52:20 10° NE visible
16 Aug - 07:26:35 10° WNW 07:30:01 21° NNW 07:33:26 10° NE daylight
16 Aug - 09:09:58 10° NW 09:12:51 16° N 09:15:43 10° NE daylight
16 Aug - 10:51:23 10° NW 10:55:26 33° NNE 10:59:27 10° E daylight
16 Aug - 12:32:49 10° WNW 12:37:05 48° SW 12:41:19 10° SSE daylight
17 Aug - 04:18:27 10° SSW 04:22:50 44° SE 04:27:10 10° ENE visible
17 Aug - 06:00:11 10° W 06:04:27 37° NNW 06:08:40 10° NE visible
17 Aug - 07:43:58 10° NW 07:46:58 17° N 07:49:57 10° NE daylight
17 Aug - 09:26:33 10° NNW 09:29:50 19° NNE 09:33:05 10° ENE daylight
17 Aug - 11:07:41 10° NW 11:12:05 57° NNE 11:16:26 10° ESE daylight
17 Aug - 12:49:52 10° W 12:53:21 23° SW 12:56:49 10° S daylight
18 Aug - 02:55:50 10° SSE 02:58:10 14° SE 03:00:31 10° E visible
18 Aug - 04:34:35 10° SW 04:39:14 88° SE 04:43:48 10° NE visible
18 Aug - 06:17:26 10° WNW 06:21:12 25° NNW 06:24:58 10° NE visible
18 Aug - 08:01:08 10° NW 08:03:59 16° N 08:06:48 10° NE daylight
18 Aug - 09:42:54 10° NW 09:46:42 26° NNE 09:50:27 10° E daylight
18 Aug - 11:24:08 10° WNW 11:28:35 75° SW 11:32:59 10° SE daylight
18 Aug - 13:08:57 10° WSW 13:09:29 10° SW 13:10:00 10° SW daylight
19 Aug - 03:10:22 10° SSW 03:14:22 29° SE 03:18:19 10° ENE visible
19 Aug - 04:51:16 10° WSW 04:55:45 50° NNW 05:00:13 10° NE visible
19 Aug - 06:34:50 10° WNW 06:38:06 19° NNW 06:41:21 10° NE daylight
19 Aug - 08:17:55 10° NW 08:20:58 18° N 08:24:01 10° NE daylight
19 Aug - 09:59:12 10° NW 10:03:27 41° NNE 10:07:38 10° E daylight
19 Aug - 11:40:52 10° WNW 11:44:56 35° SW 11:48:57 10° SSE daylight
